Theta_e
331 340 351 354 353 354 355 355 354 353 351 349 349 349 350 351 351 351 349 347 346 345 344 343 341 340 335 336 337 339 344 346 349 348 347 347 349 350 350 349 349 347 351
335 344 349 352 354 355 355 355 354 352 351 348 350 350 350 349 351 350 347 346 344 343 341 340 339 335 332 331 333 335 339 341 342 344 344 344 345 348 348 347 348 347 350
337 344 347 350 353 354 354 354 353 352 351 350 350 351 351 351 349 346 345 343 342 341 338 337 333 329 328 328 330 333 334 336 336 338 338 337 338 344 344 345 346 347 348
338 342 345 346 352 353 353 353 352 352 352 350 349 350 349 348 347 345 344 342 340 338 335 333 328 327 324 324 326 328 330 333 332 337 332 338 337 341 341 341 342 342 345
337 342 344 345 351 353 353 352 352 352 352 352 351 349 347 346 344 342 340 338 337 335 332 329 327 324 323 323 322 325 329 330 336 335 335 335 335 339 340 338 336 339 340
335 340 342 347 351 352 351 351 351 351 352 352 352 351 346 345 341 337 336 336 335 334 330 327 326 323 321 321 322 325 327 331 331 327 329 334 333 339 339 337 335 335 337
332 336 341 345 349 350 351 351 350 350 351 351 350 349 348 345 341 335 335 335 334 332 328 326 324 321 320 319 320 321 322 328 322 321 323 325 329 337 336 334 333 333 334
332 334 340 339 343 346 348 349 349 349 350 350 349 348 346 343 340 334 334 333 333 330 328 325 323 320 318 316 317 317 320 323 320 319 320 322 333 333 333 331 330 330 331
330 333 337 340 341 339 342 343 345 346 347 348 347 346 343 338 336 335 333 332 331 329 327 324 322 319 316 314 313 314 318 316 313 315 317 318 331 330 329 328 328 328 329
325 332 334 336 338 340 340 337 338 341 342 343 342 339 334 332 332 331 329 331 330 328 327 324 321 318 315 311 309 309 311 309 307 309 311 315 328 326 325 326 326 327 328
318 326 330 333 335 336 336 336 334 335 336 336 334 330 327 331 330 327 326 327 329 329 327 324 321 318 313 308 305 306 304 296 303 304 308 319 323 322 323 323 325 326 325
313 317 326 329 332 333 338 335 333 337 334 333 329 328 327 325 324 323 322 324 327 326 328 324 321 317 307 294 292 300 294 294 299 300 304 315 318 321 322 324 324 324 325
311 315 321 328 330 331 334 331 330 328 327 326 326 325 323 322 320 319 319 316 315 317 315 317 312 304 299 295 291 293 292 292 293 297 304 313 315 321 321 325 323 324 325
308 313 318 323 328 329 330 330 327 327 324 324 326 325 321 319 317 315 314 312 311 310 308 306 303 301 296 294 294 292 292 292 292 296 298 312 314 320 322 325 324 325 324
302 307 314 319 324 327 325 325 325 325 324 322 321 323 322 319 316 313 311 310 308 306 305 303 301 299 294 294 293 293 292 292 292 296 296 308 313 318 321 325 324 326 324
301 302 309 317 321 322 324 322 323 323 323 321 320 320 320 319 318 314 309 308 307 305 304 302 300 297 293 293 293 293 292 292 292 296 297 300 312 317 322 325 325 327 324
299 301 307 315 318 320 320 320 320 320 321 323 322 320 319 317 314 310 307 307 307 305 303 300 297 294 292 292 291 292 292 292 292 293 298 301 306 313 318 325 325 327 323
298 299 303 312 314 316 317 317 318 318 317 321 321 320 318 316 314 309 307 307 306 304 302 298 295 293 292 290 289 290 290 291 291 292 295 301 303 304 309 319 325 326 323
296 297 299 300 303 311 313 315 315 314 314 316 318 319 319 318 315 311 308 307 307 304 300 297 293 292 291 290 290 289 288 289 290 292 293 296 301 302 301 310 319 321 321
295 296 296 298 298 301 306 308 309 310 310 311 314 315 315 316 314 311 308 307 305 301 297 294 293 291 290 290 291 289 287 288 289 290 291 294 299 300 299 300 303 308 316
293 294 295 294 295 297 298 302 303 304 305 306 307 309 311 312 313 310 307 304 303 301 298 295 291 291 289 288 287 286 286 287 287 288 289 291 296 298 296 296 295 296 303
290 291 292 294 294 295 296 296 299 300 300 299 299 299 300 304 307 309 308 304 301 298 295 295 293 290 289 288 286 283 283 285 286 287 287 290 293 295 295 294 293 293 293
289 289 290 291 293 293 294 295 295 295 295 294 295 295 296 296 298 302 302 302 300 298 295 292 291 290 289 287 287 287 281 281 281 284 285 287 290 291 291 292 291 291 291
288 289 290 290 291 292 292 291 290 290 289 290 291 292 293 294 294 295 297 300 299 296 293 292 292 291 288 287 287 289 285 285 283 282 283 284 287 289 290 288 290 289 290
288 287 287 288 289 290 290 290 289 288 289 289 290 289 290 291 292 292 292 293 294 296 295 292 291 289 289 291 287 285 286 285 283 281 285 282 283 286 290 290 289 288 288
287 287 287 287 287 288 288 288 288 286 286 286 287 287 287 288 289 290 290 290 290 291 292 293 291 290 290 290 290 288 288 285 284 285 281 282 281 284 288 289 287 288 288
Wind_Speed
5 9 16 15 15 14 15 15 14 14 13 12 12 12 11 11 12 12 12 11 11 10 9 8 8 9 8 9 8 9 9 9 11 11 11 12 15 16 15 11 8 6 10
10 11 15 15 15 14 14 13 13 13 12 13 11 10 12 11 12 13 12 11 9 9 8 8 7 7 7 7 7 7 7 8 8 8 9 10 12 14 14 12 10 10 13
11 11 12 13 14 13 15 15 14 13 13 13 11 10 13 15 16 13 10 9 8 7 6 7 6 6 7 6 6 5 6 7 5 2 4 3 6 11 12 13 12 12 12
11 11 10 12 13 14 14 15 15 14 14 14 13 11 13 14 12 11 9 8 5 5 4 5 5 6 6 5 6 5 6 7 6 4 4 2 6 10 10 10 10 10 11
8 10 10 12 13 14 14 14 13 13 13 13 13 12 11 13 10 9 5 4 3 3 2 4 5 5 5 6 4 5 7 7 7 7 6 4 4 8 11 8 8 10 11
7 8 10 14 14 14 14 14 13 12 12 12 11 12 11 11 9 4 4 5 4 3 2 2 4 4 5 5 5 6 9 9 8 6 5 6 4 9 11 9 7 7 6
7 6 10 14 13 14 15 13 12 12 11 10 11 11 10 9 12 6 5 4 4 4 3 3 4 3 4 4 5 6 8 8 5 5 5 5 4 8 9 7 5 6 6
9 7 10 12 11 12 13 13 12 11 10 10 11 11 10 10 8 7 5 5 5 4 3 3 3 3 3 3 4 5 7 7 5 5 4 3 4 5 6 5 3 4 5
7 7 7 9 11 12 12 11 11 11 10 9 10 11 11 10 5 6 4 5 4 4 3 3 3 2 2 3 5 6 9 9 5 3 3 3 3 4 4 3 3 3 5
6 6 8 8 8 8 7 11 10 10 10 9 11 9 7 10 6 7 5 3 5 5 4 4 3 2 2 3 4 5 7 8 5 4 3 2 1 2 2 3 3 4 5
4 6 6 8 8 7 6 7 10 11 10 9 9 9 7 5 6 6 6 6 6 6 8 7 6 5 3 1 1 2 5 2 3 2 1 4 1 1 2 3 3 4 4
7 7 7 7 8 8 7 7 7 7 5 5 6 7 4 6 6 6 6 6 7 6 6 7 6 5 3 0 1 3 1 2 2 2 1 1 1 4 4 4 4 4 6
7 4 9 9 8 8 7 4 3 2 3 4 6 6 5 4 4 4 4 3 3 4 2 4 1 2 2 1 2 2 2 2 1 1 2 4 3 6 6 6 5 6 8
8 10 9 10 9 8 5 5 4 4 3 3 4 6 4 3 4 4 3 4 4 3 5 4 3 3 3 4 4 4 3 3 2 2 3 4 4 7 8 8 8 8 9
8 6 9 8 9 8 7 4 4 4 4 4 4 4 4 4 4 4 4 4 3 3 3 3 3 3 3 4 4 4 4 4 4 2 2 6 6 7 10 10 10 12 10
6 6 7 8 7 7 7 6 4 4 4 4 4 4 5 4 4 4 4 4 4 4 4 4 4 4 4 3 4 4 4 3 3 3 3 4 7 10 13 13 12 13 11
11 11 2 6 6 7 6 5 4 4 4 4 4 6 6 5 5 5 4 4 4 4 5 3 2 2 2 2 4 4 3 4 4 4 4 3 4 6 7 15 15 15 12
14 16 14 10 6 3 4 4 4 3 3 2 3 3 5 5 6 5 4 5 4 4 4 4 3 3 3 3 2 4 3 4 5 5 4 4 3 3 5 7 11 15 15
14 15 16 15 13 8 7 5 5 5 4 2 1 1 4 5 5 5 5 4 4 4 4 3 2 3 3 3 4 4 4 4 5 3 6 5 5 4 3 5 10 12 15
15 16 16 13 16 9 5 5 5 5 5 5 4 3 1 2 4 4 3 4 4 3 3 3 4 3 2 3 2 4 4 5 4 5 6 5 5 6 4 4 2 5 13
18 19 18 17 15 11 6 4 5 4 4 6 7 8 7 3 2 3 2 2 3 4 5 4 2 4 2 2 2 3 3 5 6 5 4 5 6 6 6 5 3 3 4
15 16 17 17 16 12 8 4 4 2 4 3 6 9 11 9 7 3 3 4 4 3 4 5 4 2 2 5 4 1 4 4 5 5 5 5 7 4 6 6 6 6 5
15 14 15 15 15 14 13 9 8 6 5 8 10 9 8 11 11 7 6 4 3 2 4 4 5 6 4 4 5 5 1 5 3 2 5 4 5 4 4 5 7 6 6
9 9 11 13 13 13 13 11 12 7 6 4 4 5 8 11 11 11 11 7 5 3 4 5 4 5 3 5 2 6 3 2 3 6 2 4 5 6 7 5 6 7 7
7 7 7 11 13 11 12 11 8 9 6 4 7 10 11 10 11 12 10 7 7 5 5 5 4 6 5 7 4 3 5 4 2 3 11 4 2 5 7 9 8 7 9
7 7 7 9 10 9 9 10 10 10 8 8 8 8 7 6 7 10 12 10 7 5 5 5 5 6 6 7 6 5 8 6 4 7 6 7 6 5 8 8 8 9 8
Wind_Direction
211 176 175 174 172 170 162 157 151 146 143 142 139 137 132 128 125 117 105 97 93 89 82 81 76 68 59 59 57 60 72 55 66 81 74 64 56 60 59 55 54 53 63
145 172 172 173 168 169 163 156 151 148 148 148 148 151 143 141 132 117 105 97 91 87 84 80 72 66 56 53 57 55 64 67 62 63 69 72 67 68 62 48 58 69 67
149 164 170 171 170 162 158 156 156 156 155 153 147 147 146 120 112 104 98 95 92 85 85 84 75 66 61 51 55 47 44 51 41 23 46 89 89 80 67 53 56 60 62
155 163 170 169 169 164 161 161 162 162 162 162 161 156 140 123 113 110 111 112 95 79 73 79 77 69 58 50 41 31 41 45 358 350 164 132 106 95 82 50 48 47 55
153 162 167 167 170 165 165 166 167 167 169 170 170 168 167 133 124 114 124 135 197 133 134 102 81 71 65 55 38 30 40 29 68 53 86 82 74 108 94 69 46 44 33
153 163 164 170 173 172 170 171 171 174 177 178 177 174 161 136 114 200 200 208 207 175 150 89 82 72 70 60 49 41 40 67 75 62 60 55 56 100 90 71 54 58 52
160 168 167 172 176 178 172 176 176 177 181 186 187 175 161 138 132 177 204 192 181 191 169 127 97 73 65 54 53 48 49 77 88 74 64 47 20 84 87 76 57 54 52
163 171 174 176 174 177 176 178 180 179 179 185 181 169 156 145 129 192 203 205 206 206 183 147 123 108 81 51 51 47 58 86 86 88 71 55 70 90 95 94 79 70 63
169 162 172 180 183 178 177 178 181 182 184 194 191 180 179 142 158 173 195 224 219 229 191 162 146 125 90 48 38 39 48 79 87 77 67 27 64 97 101 113 111 97 95
175 179 175 178 182 183 183 180 185 187 187 194 183 175 170 129 178 201 178 245 226 225 190 172 177 169 100 59 51 43 55 64 67 56 30 340 99 107 121 127 122 118 96
214 196 182 179 181 182 179 190 193 194 192 188 177 164 151 140 153 148 152 211 224 224 191 186 190 182 147 100 100 51 83 97 120 104 60 350 176 157 148 139 130 116 95
220 209 192 182 182 180 192 191 197 189 181 181 175 162 164 155 156 152 159 212 227 238 185 195 205 173 111 353 327 18 82 125 126 151 191 113 217 194 181 168 140 139 148
212 194 191 191 187 180 192 180 191 168 154 169 175 166 179 158 160 158 154 207 212 208 167 166 193 105 200 277 275 266 205 152 160 211 227 203 227 201 192 171 173 169 145
211 215 197 188 181 186 170 177 177 174 172 180 184 172 168 159 168 166 170 181 193 185 177 168 169 183 218 256 232 227 212 192 194 203 241 229 250 223 204 183 180 185 156
251 243 217 177 182 181 170 163 159 175 174 178 179 175 172 174 178 168 180 164 181 173 178 182 189 212 242 258 247 231 223 217 210 214 219 230 233 252 222 198 192 192 167
312 238 207 205 185 162 175 167 171 156 167 165 168 189 193 182 178 177 170 178 180 186 181 180 193 211 240 254 265 262 252 252 245 239 247 254 240 238 235 202 205 189 170
3 348 343 189 168 170 175 151 150 167 152 166 181 183 194 186 186 176 174 181 192 180 181 172 196 182 249 279 279 286 281 267 262 252 249 241 265 282 257 214 209 195 200
29 29 26 27 37 60 106 108 123 139 134 144 171 185 198 191 183 176 178 194 181 172 179 177 176 202 225 223 249 259 279 292 282 268 261 247 251 272 306 285 253 200 196
23 35 34 34 32 38 44 49 51 63 58 71 91 170 199 193 189 187 190 199 166 172 181 181 185 180 200 215 230 241 246 243 242 245 248 248 246 250 257 289 240 181 184
29 34 38 37 26 20 41 48 45 55 40 33 37 43 334 224 192 177 187 198 170 162 176 174 189 198 199 201 238 252 252 251 251 239 234 232 228 228 233 243 146 167 176
34 35 32 34 21 28 11 17 29 36 8 23 16 14 15 3 208 195 213 212 179 192 204 194 151 193 241 149 64 325 294 262 258 239 238 238 230 215 208 207 193 179 188
42 39 36 35 31 26 24 6 23 35 41 42 23 23 21 8 353 320 242 231 211 195 195 188 177 179 219 181 151 89 307 308 258 223 224 232 231 225 219 214 201 199 201
40 36 40 37 38 32 28 29 26 27 20 16 11 9 4 10 15 3 335 295 233 219 225 208 192 188 219 226 214 164 279 242 321 354 244 242 236 220 241 230 223 220 207
40 38 44 43 42 38 32 41 48 53 46 8 353 349 4 9 13 18 17 4 331 297 238 229 218 219 159 226 232 248 270 161 228 305 261 249 232 233 222 222 225 221 220
47 43 38 51 47 39 44 43 45 41 24 6 13 10 7 7 11 8 7 13 13 346 313 283 244 217 208 238 207 219 234 218 247 207 276 289 296 233 232 221 219 214 214
40 50 46 50 46 43 47 47 49 44 20 26 17 18 4 359 357 4 354 356 353 1 348 305 273 260 241 234 239 225 237 226 201 223 245 260 242 252 234 227 214 218 218